[[{"header":{"parameterUnit":"m.s-1","parameterCategory":1,"la1":30.2991,"la2":30.254,"lo1":-89.0895,"lo2":-89.0444,"dy":0.0017,"dx":0.0017,"nx":28,"ny":28,"refTime":"2024-10-15T09:00:00:Z","depth":0,"parameterNumber":2,"parameterNumberName":"U-component_of_WINDS"},"data":[0,0,0,0,0,0,0,0,0,0,0,0,0,0,0,0,0,0,0,0,0,0,0,0,0,0,0,0,0,0,0,0,0,0,0,0,0,0,0,0,0,0,0,0,0,0,0,0,0,0,0,0,0,0,0,0,0,0,-1.5173,-1.5173,0,-1.5164,-1.5163,-1.5163,-1.5116,-1.5115,-1.5114,-1.5113,-1.5106,-1.5107,-1.5108,0,0,0,0,0,0,0,0,0,0,0,0,0,-1.5153,-1.5153,-1.5173,-1.5173,-1.5172,-1.5164,-1.5163,-1.5163,-1.5116,-1.5115,-1.5114,-1.5112,-1.5106,-1.5107,-1.5108,0,0,0,0,0,0,0,0,0,0,0,0,0,-1.5154,-1.5153,-1.5173,-1.5148,-1.5145,-1.5164,-1.5163,-1.5163,-1.5117,-1.5115,-1.5113,-1.5112,-1.5105,-1.5107,-1.5108,-1.515,0,0,-1.5112,-1.5113,0,0,0,0,0,0,0,0,-1.5154,-1.5155,-1.5152,-1.515,-1.5147,-1.5139,-1.5154,-1.5159,-1.5117,-1.5128,-1.5113,-1.5111,-1.5119,-1.5119,-1.5121,-1.515,-1.5149,-1.5112,-1.5113,-1.5113,-1.5114,0,0,0,0,0,0,0,-1.5154,-1.5155,-1.5169,-1.5152,-1.5149,-1.5138,-1.5137,-1.5155,-1.5133,-1.5127,-1.5123,-1.5123,-1.5117,-1.512,-1.512,-1.5149,-1.5112,-1.5113,-1.5114,-1.5115,-1.5213,-1.5215,0,0,0,0,0,0,-1.5157,-1.5155,-1.5169,-1.5169,-1.5146,-1.514,-1.5138,-1.5143,-1.5132,-1.5129,-1.5124,-1.512,-1.5118,-1.5119,-1.512,-1.5167,-1.5113,-1.5115,-1.5115,-1.5211,-1.5213,-1.5215,0,0,0,0,0,0,-1.5157,-1.5159,-1.517,-1.5161,-1.5162,-1.5142,-1.5148,-1.5144,-1.5146,-1.513,-1.5127,-1.513,-1.5117,-1.5118,-1.5143,-1.5167,-1.5115,-1.5116,-1.5209,-1.5212,-1.5214,-1.5264,0,0,0,0,0,0,-1.5157,-1.5159,-1.5174,-1.5162,-1.5162,-1.5192,-1.515,-1.5145,-1.5149,-1.5144,-1.5135,-1.5132,-1.5116,-1.5141,-1.5144,-1.5167,-1.5117,-1.5207,-1.521,-1.5213,-1.526,-1.5268,-1.5275,0,0,0,0,0,-1.5156,-1.5188,-1.5175,-1.5177,-1.518,-1.5193,-1.5193,-1.5173,-1.5151,-1.5166,-1.5156,-1.5133,-1.5165,-1.5144,-1.5147,-1.5171,-1.5205,-1.5209,-1.5213,-1.5256,-1.5266,-1.5274,0,0,0,0,0,0,-1.5204,-1.5186,-1.5171,-1.52,-1.5199,-1.5185,-1.5203,-1.5184,-1.5189,-1.5184,-1.5159,-1.5158,-1.5186,-1.5182,-1.5159,-1.5212,-1.5181,-1.5186,-1.5213,-1.5222,-1.5229,-1.5228,-1.5119,0,0,0,0,0,-1.5218,-1.5229,-1.5214,-1.5241,-1.5241,-1.5223,-1.5227,-1.5212,-1.5209,-1.5208,-1.52,-1.5199,-1.5209,-1.5216,-1.5224,-1.526,-1.5258,-1.5279,-1.5286,-1.5292,-1.5296,-1.5315,-1.5324,-1.5229,-1.5229,-1.5229,0,0,-1.5247,-1.5239,-1.5247,-1.5251,-1.5247,-1.526,-1.5222,-1.5237,-1.5246,-1.5211,-1.5232,-1.5228,-1.5225,-1.5256,-1.5269,-1.5253,-1.5322,-1.5298,-1.5303,-1.5303,-1.532,-1.5329,-1.5337,-1.5232,-1.5231,-1.5231,0,0,-1.5305,-1.5301,-1.5322,-1.532,-1.5316,-1.5304,-1.531,-1.53,-1.5294,-1.5316,-1.529,-1.5302,-1.5319,-1.5318,-1.532,-1.5382,-1.536,-1.5385,-1.5423,-1.5441,-1.5449,-1.5455,-1.5476,-1.5484,-1.539,-1.539,-1.539,0,-1.5341,-1.5358,-1.5337,-1.5353,-1.5355,-1.5325,-1.5347,-1.5347,-1.5346,-1.5348,-1.5331,-1.5352,-1.5349,-1.5379,-1.5394,-1.5397,-1.5403,-1.5384,-1.5449,-1.5456,-1.5461,-1.5481,-1.5489,-1.5393,-1.5392,-1.5392,-1.5392,0,-1.5402,-1.5415,-1.5434,-1.5432,-1.5438,-1.5457,-1.544,-1.5448,-1.5433,-1.5423,-1.5447,-1.5442,-1.5448,-1.5455,-1.5441,-1.5484,-1.5474,-1.5454,-1.5421,-1.5474,-1.5491,-1.5499,-1.5397,-1.5396,-1.5395,-1.5394,0,0,-1.5487,-1.5475,-1.5482,-1.5481,-1.5476,-1.5485,-1.5505,-1.5511,-1.5518,-1.552,-1.5535,-1.5551,-1.5533,-1.5535,-1.5521,-1.5538,-1.5586,-1.5516,-1.5515,-1.5527,-1.5631,-1.5644,-1.5653,-1.5573,-1.5575,-1.5576,-1.5631,0,-1.5541,-1.5571,-1.5553,-1.5587,-1.5598,-1.557,-1.5587,-1.5586,-1.5579,-1.5588,-1.5581,-1.5592,-1.5568,-1.5569,-1.5585,-1.5577,-1.5606,-1.5573,-1.5587,-1.5587,-1.5585,-1.5663,-1.5676,-1.5728,-1.5638,-1.5639,-1.564,0,-1.5607,-1.561,-1.5644,-1.5637,-1.5641,-1.5656,-1.566,-1.567,-1.567,-1.5663,-1.5667,-1.565,-1.5669,-1.564,-1.5667,-1.5645,-1.5651,-1.5648,-1.565,-1.5648,-1.5614,-1.5661,-1.5744,-1.5751,-1.5651,-1.565,-1.5649,0,-1.5662,-1.5676,-1.5698,-1.5699,-1.5691,-1.5703,-1.57,-1.5698,-1.5703,-1.5708,-1.5711,-1.5719,-1.5723,-1.573,-1.5716,-1.5696,-1.5744,-1.5714,-1.5739,-1.5739,-1.5748,-1.5747,-1.5831,-1.5756,-1.5756,-1.5756,-1.5756,0,-1.5723,-1.5744,-1.5723,-1.5736,-1.576,-1.5741,-1.5766,-1.5761,-1.5759,-1.5772,-1.5751,-1.5763,-1.5745,-1.5756,-1.5746,-1.577,-1.5772,-1.5768,-1.5764,-1.5768,-1.5768,-1.5768,-1.5763,-1.5758,-1.5758,-1.5757,-1.5757,0,-1.5787,-1.5774,-1.5796,-1.5788,-1.5786,-1.5804,-1.5797,-1.581,-1.5802,-1.5819,-1.5822,-1.5809,-1.5822,-1.5809,-1.5822,-1.5815,-1.5845,-1.5838,-1.5845,-1.5842,-1.5866,-1.5863,-1.5952,-1.5962,-1.5883,-1.5884,-1.5885,0,-1.5824,-1.584,-1.5834,-1.584,-1.5839,-1.585,-1.5855,-1.5839,-1.5845,-1.5847,-1.5859,-1.587,-1.5877,-1.5899,-1.5891,-1.5901,-1.5892,-1.5923,-1.5893,-1.5897,-1.589,-1.5888,-1.5889,-1.5928,-1.5928,-1.5929,-1.593,0,-1.5892,-1.5885,-1.5893,-1.5899,-1.5905,-1.5909,-1.5912,-1.5919,-1.5902,-1.5911,-1.5923,-1.5928,-1.5941,-1.5952,-1.5959,-1.5958,-1.5941,-1.594,-1.5946,-1.5948,-1.595,-1.5947,-1.5858,-1.5937,-1.5936,-1.5936,-1.5935,-1.5935,-1.5942,-1.5955,-1.5953,-1.5962,-1.5963,-1.5966,-1.5977,-1.5971,-1.5981,-1.5988,-1.5979,-1.5994,-1.5995,-1.6003,-1.6005,-1.6017,-1.6004,-1.6013,-1.6015,-1.6016,-1.6019,-1.5951,-1.6019,-1.6018,-1.6018,-1.6018,-1.6018,0,-1.6007,-1.6005,-1.6014,-1.6018,-1.6026,-1.601,-1.6013,-1.602,-1.6033,-1.6035,-1.6043,-1.6057,-1.6068,-1.6063,-1.6073,-1.6084,-1.6077,-1.6087,-1.6084,-1.6084,-1.6031,-1.6024,-1.6093,-1.6093,-1.6093,-1.6093,-1.6093,-1.6093,-1.6041,-1.6061,-1.6055,-1.6076,-1.6074,-1.6087,-1.609,-1.6093,-1.6094,-1.6111,-1.612,-1.6117,-1.6116,-1.6126,-1.6136,-1.6135,-1.6138,-1.6151,-1.6147,-1.6096,-1.6088,-1.6081,-1.6074,-1.6153,-1.6153,-1.6199,-1.6199,-1.6199]},{"header":{"parameterUnit":"m.s-1","parameterCategory":1,"la1":30.2991,"la2":30.254,"lo1":-89.0895,"lo2":-89.0444,"dy":0.0017,"dx":0.0017,"nx":28,"ny":28,"refTime":"2024-10-15T09:00:00:Z","depth":0,"parameterNumber":3,"parameterNumberName":"V-component_of_WINDS"},"data":[0,0,0,0,0,0,0,0,0,0,0,0,0,0,0,0,0,0,0,0,0,0,0,0,0,0,0,0,0,0,0,0,0,0,0,0,0,0,0,0,0,0,0,0,0,0,0,0,0,0,0,0,0,0,0,0,0,0,1.0721,1.0721,0,1.0758,1.0759,1.0759,1.0805,1.0806,1.0806,1.0807,1.0842,1.0843,1.0843,0,0,0,0,0,0,0,0,0,0,0,0,0,1.0686,1.0686,1.0721,1.0721,1.0722,1.0758,1.0759,1.0759,1.0805,1.0806,1.0807,1.0807,1.0842,1.0843,1.0843,0,0,0,0,0,0,0,0,0,0,0,0,0,1.071,1.0686,1.0721,1.0749,1.0752,1.0758,1.0759,1.0759,1.0805,1.0806,1.0807,1.0808,1.0842,1.0843,1.0843,1.0824,0,0,1.0844,1.0845,0,0,0,0,0,0,0,0,1.0708,1.0711,1.0744,1.0747,1.075,1.0778,1.076,1.0781,1.0804,1.0784,1.0807,1.0808,1.082,1.0822,1.0827,1.0826,1.0827,1.0844,1.0845,1.0845,1.0845,0,0,0,0,0,0,0,1.0707,1.071,1.0735,1.0745,1.0748,1.0759,1.0763,1.0764,1.0795,1.0786,1.079,1.0794,1.0822,1.0826,1.0828,1.0828,1.0844,1.0845,1.0845,1.0845,1.0813,1.0812,0,0,0,0,0,0,1.0701,1.0708,1.0734,1.0737,1.0732,1.0759,1.0764,1.0768,1.0796,1.0801,1.0793,1.0796,1.0825,1.0828,1.0829,1.0809,1.0845,1.0845,1.0845,1.0814,1.0812,1.0811,0,0,0,0,0,0,1.07,1.0703,1.0733,1.0723,1.0728,1.0758,1.0762,1.0768,1.0773,1.0801,1.0806,1.0792,1.0826,1.0829,1.0825,1.0811,1.0845,1.0846,1.0815,1.0813,1.0812,1.0768,0,0,0,0,0,0,1.0699,1.0702,1.0696,1.0723,1.0728,1.0728,1.0762,1.0768,1.0774,1.0778,1.0801,1.0806,1.0827,1.0824,1.0826,1.0812,1.0846,1.0816,1.0814,1.0812,1.0771,1.0765,1.076,0,0,0,0,0,1.0698,1.0681,1.0695,1.0698,1.0721,1.0728,1.0731,1.0756,1.0772,1.0766,1.0784,1.0805,1.0812,1.0824,1.0825,1.0812,1.0817,1.0815,1.0812,1.0773,1.0766,1.076,0,0,0,0,0,0,1.0651,1.0685,1.0701,1.0693,1.0707,1.0735,1.0728,1.0748,1.0757,1.076,1.079,1.0795,1.0788,1.0799,1.0811,1.0795,1.0818,1.0816,1.0787,1.0781,1.0776,1.0773,1.0846,0,0,0,0,0,1.064,1.0643,1.0673,1.0663,1.0669,1.0697,1.0701,1.072,1.0735,1.0741,1.0758,1.0771,1.0777,1.078,1.0786,1.0773,1.0778,1.0764,1.0759,1.0754,1.0752,1.0746,1.074,1.0803,1.0803,1.0803,0,0,1.0616,1.0636,1.0636,1.0654,1.0667,1.0669,1.0702,1.0702,1.0704,1.074,1.0739,1.0752,1.0769,1.076,1.0757,1.077,1.0736,1.0751,1.0747,1.0747,1.0742,1.0736,1.0731,1.0801,1.0802,1.0802,0,0,1.0575,1.059,1.0584,1.0597,1.0616,1.0635,1.0634,1.0659,1.067,1.0668,1.0696,1.0698,1.0706,1.0717,1.0724,1.0687,1.0707,1.0688,1.066,1.0654,1.0649,1.0645,1.0631,1.0626,1.0686,1.0686,1.0686,0,1.0543,1.0549,1.0578,1.0577,1.0584,1.0619,1.0612,1.0623,1.0643,1.0647,1.066,1.0672,1.0686,1.068,1.0672,1.0676,1.0675,1.0686,1.0647,1.0643,1.064,1.0628,1.0623,1.0683,1.0684,1.0684,1.0684,0,1.0509,1.0512,1.0504,1.0525,1.0531,1.0527,1.0555,1.0558,1.0576,1.0593,1.0591,1.0609,1.0619,1.062,1.0637,1.0617,1.0624,1.0642,1.0666,1.0631,1.062,1.0616,1.068,1.0681,1.0682,1.0682,0,0,1.0438,1.0476,1.0472,1.0482,1.0507,1.0509,1.0507,1.0519,1.052,1.0533,1.0532,1.0539,1.0556,1.0563,1.0582,1.0577,1.0547,1.0596,1.0597,1.0586,1.0526,1.0512,1.0506,1.056,1.056,1.0559,1.0524,0,1.0402,1.0401,1.0427,1.0419,1.0422,1.0455,1.0453,1.0468,1.0484,1.0488,1.0506,1.051,1.0533,1.0537,1.0534,1.0551,1.0535,1.0554,1.0559,1.0558,1.0553,1.05,1.0485,1.0451,1.052,1.0519,1.0519,0,1.0359,1.0371,1.0363,1.0389,1.0391,1.0389,1.0402,1.0406,1.0423,1.0435,1.0444,1.0465,1.0464,1.0487,1.0486,1.0498,1.0502,1.0511,1.051,1.0511,1.0536,1.05,1.0441,1.0436,1.0513,1.0513,1.0513,0,1.0308,1.0322,1.032,1.0327,1.0357,1.0354,1.0366,1.0385,1.039,1.0401,1.0405,1.0415,1.0421,1.0428,1.0451,1.0466,1.0447,1.0472,1.0457,1.0456,1.0451,1.0451,1.0392,1.0453,1.0453,1.0453,1.0453,0,1.0264,1.0258,1.0297,1.0296,1.029,1.032,1.0313,1.0328,1.0344,1.0345,1.0374,1.0374,1.0406,1.041,1.0428,1.0424,1.0426,1.0436,1.0441,1.0433,1.0432,1.0435,1.0438,1.0452,1.0452,1.0453,1.0453,0,1.0206,1.0233,1.0232,1.0261,1.0268,1.0262,1.0286,1.0286,1.0304,1.0305,1.0307,1.0335,1.0341,1.0366,1.0377,1.039,1.0379,1.0389,1.0374,1.0377,1.036,1.0361,1.0301,1.0295,1.036,1.0359,1.0359,0,1.0177,1.0173,1.0202,1.0205,1.0217,1.0222,1.0228,1.0257,1.0262,1.0282,1.0278,1.0287,1.0295,1.0303,1.0324,1.0333,1.0343,1.0321,1.0344,1.0337,1.0342,1.0342,1.0342,1.0316,1.0315,1.0315,1.0314,0,1.0121,1.0134,1.0143,1.0155,1.0162,1.0174,1.0186,1.0187,1.022,1.0224,1.0231,1.0238,1.025,1.0258,1.0271,1.0282,1.0303,1.0307,1.0304,1.0296,1.0287,1.0291,1.036,1.0308,1.0309,1.0309,1.0309,1.031,1.0076,1.0075,1.0095,1.0103,1.0116,1.0128,1.0129,1.0148,1.0155,1.0168,1.0184,1.0189,1.0206,1.0226,1.0236,1.0239,1.0251,1.0247,1.0245,1.0244,1.024,1.0287,1.0242,1.0242,1.0242,1.0242,1.0242,0,1.0022,1.0037,1.0044,1.0062,1.0069,1.0089,1.0105,1.0108,1.0113,1.0128,1.0136,1.0144,1.0152,1.0173,1.0183,1.0182,1.0192,1.0184,1.0184,1.0186,1.0229,1.0231,1.0176,1.0176,1.0176,1.0176,1.0176,1.0176,0.9994,0.9993,1.0009,1.0014,1.0029,1.0035,1.0042,1.0052,1.0065,1.0073,1.008,1.0095,1.0112,1.0124,1.0132,1.0138,1.014,1.0128,1.0137,1.0177,1.0183,1.0189,1.0191,1.0129,1.0128,1.0095,1.0094,1.0094]}]]